Location: ??????????
(54.8537°N, 38.8755°E)
Time: 14:36:51
(UTC+00:00)

Transit 4A - Visible Passes

Search period start: 13 September 2024 00:00
Search period end: 23 September 2024 00:00
Orbit: 866 x 976 km, 66.8° (Epoch: 12 September)

Date Brightness Start Highest point End Pass type
(mag) Time Alt. Az. Time Alt. Az. Time Alt. Az.
13 Sep 8.3 01:05:09 13° SSW 01:10:12 57° ESE 01:16:07 10° NE visible
13 Sep 9.9 23:30:49 13° SE 23:33:45 18° ESE 23:37:41 10° ENE visible
14 Sep 8.0 01:14:20 16° SSW 01:19:07 75° SE 01:25:11 10° NE visible
14 Sep 9.4 23:39:57 19° SE 23:42:24 25° ESE 23:47:12 10° ENE visible
15 Sep 7.8 01:23:27 17° SW 01:28:05 86° NW 01:34:13 10° NE visible
15 Sep 9.0 23:49:01 27° SSE 23:51:08 34° ESE 23:56:29 10° NE visible
16 Sep 7.9 01:32:31 17° SW 01:37:08 69° NW 01:43:13 10° NE visible
16 Sep 8.5 23:58:03 35° SSE 23:59:55 46° ESE 00:05:39 10° NE visible
17 Sep 8.2 01:41:33 16° WSW 01:46:14 55° NW 01:52:15 10° NE visible
17 Sep 9.9 22:23:32 14° ESE 22:23:38 14° ESE 22:26:41 10° ENE visible
18 Sep 8.1 00:07:02 43° S 00:08:46 62° SE 00:14:45 10° NE visible
18 Sep 8.4 01:50:32 14° WSW 01:55:24 46° NNW 02:01:17 10° NE visible
18 Sep 9.6 22:32:29 20° ESE 22:32:29 20° ESE 22:36:29 10° ENE visible
19 Sep 7.8 00:15:59 49° SSW 00:17:42 80° SE 00:23:48 10° NE visible
19 Sep 8.7 01:59:29 12° W 02:04:37 39° NNW 02:10:21 10° NE visible
19 Sep 9.2 22:41:24 27° ESE 22:41:24 27° ESE 22:45:54 10° NE visible
20 Sep 7.8 00:24:54 48° SW 00:26:41 81° NW 00:32:50 10° NE visible
20 Sep 8.9 02:08:28 10° W 02:13:53 34° NNW 02:19:26 10° NE visible
20 Sep 8.8 22:50:17 36° ESE 22:50:17 36° ESE 22:55:09 10° NE visible
21 Sep 8.0 00:33:47 42° WSW 00:35:44 64° NW 00:41:51 10° NE visible
21 Sep 9.1 02:17:54 10° WNW 02:23:11 31° NNW 02:28:36 10° NE visible
21 Sep 8.4 22:59:09 48° E 22:59:09 48° E 23:04:17 10° NE visible
22 Sep 8.2 00:42:38 35° W 00:44:52 52° NW 00:50:52 10° NE visible
22 Sep 9.2 02:27:21 10° WNW 02:32:30 28° N 02:37:49 10° NE visible
22 Sep 10.1 21:24:30 13° ENE 21:24:30 13° ENE 21:25:34 10° ENE visible
22 Sep 8.1 23:07:59 62° E 23:07:59 62° E 23:13:22 10° NE visible
